Home   Weather   Cumberland   Past weeks
Flag for USA

Past Weather in Cumberland, Maryland, USA — Yesterday and Last 2 Weeks

Now
72 °F

Sunny.


Feels Like: 73 °F
Forecast: 83 / 68 °F
Wind: No wind

Location: Eastern West Virginia Regional Airport

Current Time: Jun 4, 2020 at 8:26:34 am

Latest Report: Jun 4, 2020 at 7:53 am


Visibility: 10 mi

Pressure: 29.87 "Hg

Humidity: 78%

Dew Point: 65 °F

Location of CumberlandLocation

Past Weather in Cumberland — Graph

°F

Cumberland Temperature Yesterday

Maximum temperature yesterday: 91 °F (at 2:53 pm)
Minimum temperature yesterday: 72 °F (at 1:53 am)
Average temperature yesterday: 81 °F

High & Low Weather Summary for the Past Weeks

 TemperatureHumidityPressure
High91 °F (Jun 3, 2:53 pm)100% (May 22, 6:53 am)30.35 "Hg (May 22, 6:53 am)
Low44 °F (Jun 1, 4:53 am)25% (Jun 1, 6:53 pm)29.68 "Hg (Jun 3, 3:53 pm)
Average66 °F73%30.07 "Hg
* Reported May 20 6:53 am — Jun 4 6:53 am, Cumberland. Weather by CustomWeather, © 2020

Note: Actual official high and low records may vary slightly from our data, if they occured in-between our weather recording intervals... More about our weather records

Cumberland Weather History for the Previous 24 Hours

Scroll right to see more
 ConditionsComfort  
Time TempWeatherWind HumidityBarometerVisibility
6:53 am
Thu, Jun 4
70 °FSunny.No wind81%29.85 "Hg10 mi
5:53 am69 °FSunny.No wind79%29.83 "Hg10 mi
4:53 am70 °FClear.No wind76%29.81 "Hg10 mi
3:53 am72 °FClear.3 mph71%29.80 "Hg10 mi
2:53 am76 °FOvercast.3 mph62%29.80 "Hg10 mi
1:53 am76 °FPassing clouds.5 mph62%29.79 "Hg10 mi
12:53 am79 °FClear.12 mph56%29.80 "Hg10 mi
11:53 pm
Wed, Jun 3
79 °FClear.10 mph54%29.79 "Hg10 mi
10:53 pm80 °FClear.15 mph52%29.76 "Hg10 mi
9:53 pm81 °FClear.15 mph51%29.74 "Hg10 mi
8:53 pm82 °FClear.16 mph51%29.72 "Hg10 mi
7:53 pm82 °FSunny.14 mph53%29.71 "Hg10 mi
6:53 pm84 °FSunny.16 mph49%29.70 "Hg10 mi
5:53 pm86 °FSunny.16 mph45%29.69 "Hg10 mi
4:53 pm86 °FSunny.18 mph48%29.68 "Hg10 mi
3:53 pm90 °FPassing clouds.16 mph41%29.68 "Hg10 mi
2:53 pm91 °FScattered clouds.18 mph39%29.69 "Hg10 mi
1:53 pm90 °FSunny.21 mph39%29.70 "Hg10 mi
12:53 pm88 °FSunny.23 mph42%29.72 "Hg10 mi
11:53 am85 °FSunny.20 mph48%29.73 "Hg10 mi
10:53 am83 °FSunny.16 mph50%29.72 "Hg10 mi
9:53 am80 °FSunny.13 mph52%29.73 "Hg10 mi
8:53 am79 °FSunny.10 mph52%29.74 "Hg10 mi
Weather by CustomWeather, © 2020

See weather overview

Advertising